Location: Gugi
(45.4667°N, 11.1000°E)
Time: 00:28:49
(UTC+00:00)

Cosmos 1238 Rocket - Pass Details

Date: 17 November 2019
Orbit: 374 x 1033 km, 82.9° (Epoch: 11 December)

Event Time Altitude Azimuth Distance (km) Brightness Sun altitude
Rises 16:44:31 0° 346° (NNW) 2,981 6.5 -10.7°
Reaches altitude 10° 16:47:03 10° 340° (NNW) 1,947 5.7 -11.1°
Maximum altitude 16:51:02 41° 270° (W) 764 4.2 -11.8°
Drops below altitude 10° 16:54:21 10° 198° (SSW) 1,619 5.7 -12.4°
Sets 16:56:18 0° 191° (S) 2,414 6.5 -12.7°
